This demonstration page uses our WeatherBlox Daily Observations layout. Learn more.

Left ArrowRight Arrow

38.89511, -77.03637

Hourly Observations for February 9, 2017

Temp ( °F °C ) Dew Point ( °F °C ) Humidity (%) Winds ( mph kmh ) Pressure ( in mb ) Visibility ( mi km ) Precip ( " mm )
12:52 am 00:52 Cloudy 51 10.6 42 5.6 71 71 NE 7 11 29.56 1001 10 16 0.00 0.03
1:08 am 01:08 Cloudy with Nearby Thunderstorms 52 11 41 5 67 67 NE 3 6 29.56 1001 10 16 0.00 0.00
1:23 am 01:23 Cloudy 51 10.6 41 5 69 69 NE 7 11 29.56 1001 10 16 0.00 0.00
1:52 am 01:52 Cloudy 51 10.6 42 5.6 71 71 NNE 7 11 29.50 999 10 16 0.00 0.00
2:52 am 02:52 Cloudy with Light Rain 50 10 43 6.1 77 77 NE 8 13 29.48 998 10 16 0.00 0.03
3:08 am 03:08 Cloudy with Rain 48 9 45 7 87 87 N 10 17 29.47 998 4 6 0.00 0.00
3:52 am 03:52 Cloudy with Light Rain 48 8.9 45 7.2 89 89 NNW 16 26 29.48 998 4 6 0.07 1.78
4:14 am 04:14 Cloudy with Light Rain 46 8 45 7 93 93 NNW 23 37 29.47 998 6 10 0.00 0.00
4:52 am 04:52 Cloudy with Light Rain 44 6.7 41 5 89 89 N 25 41 29.50 999 10 16 0.03 0.76
5:08 am 05:08 Cloudy with Light Rain 43 6 39 4 87 87 NNW 30 48 29.53 1000 10 16 0.00 0.00
5:52 am 05:52 Cloudy with Light Rain 39 3.9 35 1.7 86 86 NNW 22 35 29.57 1002 10 16 0.01 0.25
6:31 am 06:31 Cloudy with Light Rain 38 3.3 34 1.1 86 86 NNW 23 37 29.62 1003 10 16 0.00 0.03
6:52 am 06:52 Cloudy with Light Rain 37 2.8 34 1.1 89 89 NNW 24 39 29.62 1003 10 16 0.00 0.03
7:33 am 07:33 Cloudy 37 2.8 33 0.6 86 86 NNW 20 31 29.65 1004 10 16 0.00 0.03
7:41 am 07:41 Cloudy 37 2.8 33 0.6 86 86 NNW 20 31 29.68 1005 10 16 0.00 0.03
7:52 am 07:52 Cloudy 37 2.8 32 0 82 82 NNW 23 37 29.69 1005 10 16 0.00 0.03
8:14 am 08:14 Windy with Snow Likely 36 2.2 33 0.6 89 89 NNW 20 31 29.71 1006 4 6 0.00 0.03
8:52 am 08:52 Cloudy 37 2.8 31 -0.6 79 79 NNW 22 35 29.72 1007 10 16 0.00 0.03
9:52 am 09:52 Cloudy 37 2.8 27 -2.8 67 67 NW 33 54 29.75 1007 10 16 0.00 0.00
10:52 am 10:52 Mostly Cloudy 36 2.2 22 -5.6 57 57 NW 31 50 29.78 1009 10 16 0.00 0.00
11:52 am 11:52 Mostly Cloudy 35 1.7 21 -6.1 57 57 NW 23 37 29.82 1010 10 16 0.00 0.00
12:52 pm 12:52 Mostly Cloudy 35 1.7 17 -8.3 48 48 NW 21 33 29.85 1011 10 16 0.00 0.00
1:52 pm 13:52 Mostly Cloudy 36 2.2 17 -8.3 46 46 NNW 21 33 29.85 1011 10 16 0.00 0.00
2:52 pm 14:52 Mostly Cloudy 35 1.7 12 -11.1 38 38 NW 30 48 29.88 1012 10 16 0.00 0.00
3:52 pm 15:52 Mostly Cloudy 35 1.7 16 -8.9 46 46 NW 20 31 29.92 1013 10 16 0.00 0.00
4:37 pm 16:37 Mostly Cloudy with Light Snow 32 0 16 -8.9 52 52 NW 22 35 29.94 1014 10 16 0.00 0.03
4:52 pm 16:52 Mostly Cloudy with Light Snow 32 0 18 -7.8 56 56 WNW 21 33 29.96 1015 9 14 0.00 0.03
5:00 pm 17:00 Mostly Cloudy with Light Snow 32 0 19 -7 60 60 WNW 24 39 29.97 1015 7 11 0.00 0.00
5:03 pm 17:03 Mostly Cloudy with Light Snow 30 -1 18 -8 59 59 NW 25 41 29.97 1015 6 10 0.00 0.00
5:28 pm 17:28 Mostly Cloudy 31 -0.6 16 -8.9 54 54 NW 16 26 30.00 1016 9 14 0.00 0.03
5:52 pm 17:52 Partly Cloudy 31 -0.6 11 -11.7 43 43 NW 18 30 30.03 1017 10 16 0.00 0.03
6:52 pm 18:52 Partly Cloudy 30 -1.1 6 -14.4 36 36 NW 25 41 30.07 1018 10 16 0.00 0.00
7:52 pm 19:52 Partly Cloudy 29 -1.7 7 -13.9 39 39 NW 16 26 30.12 1020 10 16 0.00 0.00
8:52 pm 20:52 Partly Cloudy 28 -2.2 7 -13.9 41 41 NW 28 44 30.15 1021 10 16 0.00 0.00
9:52 pm 21:52 Mostly Cloudy 28 -2.2 9 -12.8 44 44 WNW 22 35 30.19 1023 10 16 0.00 0.00
10:52 pm 22:52 Mostly Cloudy 27 -2.8 11 -11.7 51 51 WNW 20 31 30.23 1024 10 16 0.00 0.00
11:52 pm 23:52 Mostly Clear 26 -3.3 5 -15 40 40 NW 21 33 30.26 1025 10 16 0.00 0.00

Powered by AerisWeather